SCP
0 0 0 0 0 0 0 0 0 0 0 0 0 0 0 0 0 0 0 0 0 0 0 0 0 0 0 0 0 0 0 0 0 0 0 0 0 0 0 0 0 0 0
0 0 0 0 0 0 0 0 0 0 0 0 0 0 0 0 0 0 0 0 0 0 0 0 0 0 0 0 0 0 0 0 0 0 0 0 0 0 0 0 0 0 0
0 0 0 0 0 0 0 0 0 0 0 0 0 0 0 0 0 0 0 0 0 0 0 0 0 0 0 0 0 0 0 0 0 0 0 0 0 0 0 0 0 0 0
0 0 0 1 0 0 0 0 0 0 0 0 0 0 0 0 0 0 0 0 0 0 0 0 0 0 0 0 0 0 0 0 0 0 0 0 0 0 0 0 0 0 0
0 0 0 1 0 0 0 0 0 0 0 0 0 0 0 0 0 0 0 0 0 0 0 0 0 0 0 0 0 0 0 0 0 0 0 0 0 0 0 0 0 0 0
0 0 0 0 0 0 0 0 0 0 0 0 0 0 0 0 0 0 0 0 0 0 0 0 0 0 0 0 0 0 0 0 0 0 0 0 0 0 0 0 0 0 0
0 0 0 0 0 0 0 0 0 0 0 0 0 0 0 0 0 0 0 0 0 0 0 0 0 0 0 0 0 0 0 0 0 0 0 0 0 0 0 0 0 0 0
0 0 0 0 0 0 0 0 0 0 0 0 0 0 0 0 0 0 0 0 0 0 0 0 0 0 0 0 0 0 0 0 0 0 0 0 0 0 0 0 0 0 0
0 0 0 0 0 0 0 0 0 0 0 0 0 0 0 0 0 0 0 0 0 0 0 0 0 0 0 0 0 0 0 0 0 0 0 0 0 0 0 0 0 0 0
0 0 0 0 0 0 0 0 0 0 0 0 0 0 0 0 0 0 0 0 0 0 0 0 0 0 0 0 0 0 0 0 0 0 0 0 0 0 0 0 0 0 0
0 0 0 0 0 0 0 0 0 0 0 0 0 0 0 0 0 0 0 0 0 0 0 0 0 0 0 0 0 0 0 0 0 0 0 0 0 0 0 0 0 0 0
0 0 0 0 0 0 0 0 0 0 0 0 0 0 0 0 0 0 0 0 0 0 0 0 0 0 0 0 0 0 0 0 0 0 0 0 0 0 0 0 0 0 0
0 0 0 0 0 0 0 0 0 0 0 0 0 0 0 0 0 0 0 0 0 0 0 0 0 0 0 0 0 0 0 0 0 0 0 0 0 0 0 0 0 0 0
0 0 0 0 0 0 0 0 0 0 0 0 0 0 0 0 0 0 0 0 0 0 0 0 0 0 0 0 0 0 0 0 0 0 0 0 0 0 0 0 0 0 0
0 0 0 0 0 0 0 0 0 0 0 0 0 0 0 0 0 0 0 0 0 0 0 0 0 0 0 0 0 0 0 0 0 0 0 0 0 0 0 0 0 0 0
0 0 0 0 0 0 0 0 0 0 0 0 0 0 0 0 0 0 0 0 0 0 0 0 0 0 0 0 0 0 0 0 0 0 0 0 0 0 0 0 0 0 0
0 0 0 0 0 0 0 0 0 0 0 0 0 0 0 0 0 0 0 0 0 0 0 0 0 0 0 0 0 0 0 0 0 0 0 0 0 0 0 0 0 0 0
0 0 0 0 0 0 0 0 0 0 0 0 0 0 0 0 0 0 0 0 0 0 0 0 0 0 0 0 0 0 0 0 0 0 0 0 0 0 0 0 0 0 0
0 0 0 0 0 0 0 0 0 0 0 0 0 0 0 0 0 0 0 0 0 0 0 0 0 0 0 0 0 0 0 0 0 0 0 0 0 0 0 0 0 0 0
0 1 1 1 1 1 1 1 0 0 0 0 0 0 0 0 0 0 0 0 0 0 0 0 0 0 0 0 0 0 0 0 0 0 0 0 0 0 0 0 0 0 0
0 1 1 1 1 1 1 1 1 1 0 0 0 0 0 0 0 0 0 0 0 0 0 0 0 0 0 0 0 0 0 0 0 0 0 0 0 0 0 0 0 0 0
0 1 1 1 1 1 1 1 1 1 1 0 0 0 0 0 0 0 0 0 0 0 0 0 0 0 0 0 0 0 0 0 0 0 0 0 0 0 0 0 0 0 0
0 1 1 1 1 1 1 1 1 1 1 0 0 0 0 0 0 0 0 0 0 0 0 0 0 0 0 0 0 0 0 0 0 0 0 0 0 0 0 0 0 0 0
1 1 1 1 1 1 1 1 1 1 1 0 0 0 0 0 0 0 0 0 0 0 0 0 0 0 0 0 0 0 0 0 0 0 0 0 0 0 0 0 0 0 0
1 1 1 1 1 1 1 1 1 1 1 0 0 0 0 0 0 0 0 0 0 0 0 0 0 0 0 0 0 0 0 0 0 0 0 0 0 0 0 0 0 0 0
1 1 1 1 1 1 1 1 1 1 1 0 0 0 0 0 0 0 0 0 0 0 0 0 0 0 0 0 0 0 0 0 0 0 0 0 0 0 0 0 0 0 0
Wind_Speed
8 11 14 9 9 8 8 8 8 9 10 10 10 10 10 10 10 10 10 9 9 9 9 9 8 9 9 9 9 9 9 9 9 10 9 9 8 8 8 8 7 8 11
9 11 14 10 9 8 8 8 8 9 9 10 10 10 10 10 9 9 9 9 9 9 8 8 8 8 8 8 9 9 9 9 9 9 9 9 9 8 8 6 3 6 9
10 12 13 10 9 8 8 8 9 9 9 9 10 10 10 9 9 8 8 8 8 8 8 7 7 7 7 7 8 8 8 8 8 8 7 7 9 9 8 7 7 7 7
10 11 10 11 9 8 8 8 8 9 9 9 9 9 9 9 8 8 8 8 7 7 7 7 6 6 7 7 8 8 7 7 7 6 6 5 7 10 8 7 7 6 6
9 9 11 9 9 8 8 7 8 8 9 9 9 9 9 8 8 7 7 7 7 7 7 6 6 6 6 7 7 7 7 6 6 6 3 3 4 9 8 7 6 6 5
9 9 12 9 8 7 7 7 7 8 8 8 8 9 8 8 7 7 6 6 6 6 6 5 5 5 5 6 6 6 6 6 8 5 4 4 4 9 8 7 6 6 5
8 8 11 9 8 7 7 6 6 7 7 7 7 7 7 7 7 6 6 6 6 5 6 5 5 5 5 5 6 6 6 6 7 4 4 4 5 8 7 6 6 7 6
7 8 10 11 9 8 6 6 6 6 7 6 6 6 7 7 6 6 6 6 5 5 5 5 5 5 5 5 5 5 5 7 6 4 5 4 7 6 6 6 7 7 7
7 7 8 8 9 8 6 5 5 6 7 6 6 6 7 7 7 6 6 6 5 5 5 5 5 5 5 5 5 5 5 6 7 4 5 3 8 7 7 6 7 7 7
7 7 7 7 7 7 8 8 6 6 7 7 6 6 6 7 7 7 7 6 5 5 5 5 5 5 5 5 5 5 6 8 8 6 4 4 8 7 8 7 7 8 7
7 6 6 6 6 6 6 7 7 7 7 7 7 7 7 6 6 6 5 5 5 5 5 5 5 5 6 7 7 7 8 7 6 4 3 6 7 7 7 8 8 8 8
8 7 6 5 5 5 4 5 5 5 6 6 5 6 5 3 3 4 6 6 6 6 6 6 5 7 9 7 9 10 7 7 5 4 3 8 6 7 7 8 9 9 8
7 6 5 5 4 4 3 3 3 3 4 5 5 5 4 3 3 3 3 5 6 7 6 7 8 7 6 4 4 6 6 5 4 3 4 9 6 7 8 8 8 9 9
6 6 5 5 4 3 3 3 3 3 3 3 4 5 4 3 3 2 2 3 4 3 3 4 4 5 5 5 6 6 6 5 4 3 3 8 6 7 8 8 8 8 9
6 6 6 5 5 4 3 3 3 3 3 3 3 4 4 3 3 3 3 3 4 3 4 4 5 4 5 6 6 6 6 6 5 5 3 8 7 6 8 8 9 9 9
6 6 5 6 6 5 4 3 3 3 3 3 3 4 5 3 3 3 4 3 3 3 3 4 4 5 5 4 6 6 6 6 5 5 5 6 9 8 8 8 9 8 9
6 6 6 6 6 6 5 5 3 3 3 3 3 4 4 4 4 4 4 4 3 4 4 4 5 5 5 5 6 6 6 6 5 6 6 4 6 10 10 9 8 8 8
5 6 5 5 6 5 4 4 3 3 3 3 3 3 4 5 5 5 4 4 3 4 4 4 5 5 5 5 5 5 5 5 6 6 7 6 5 5 9 10 9 9 9
5 5 6 5 5 5 4 3 3 3 3 3 3 3 3 4 5 5 4 2 3 3 4 4 4 5 5 5 5 5 6 6 5 7 6 6 5 5 5 8 10 10 9
5 5 5 6 5 4 4 3 3 3 3 3 3 2 3 4 5 5 4 3 4 3 3 3 4 4 5 5 6 5 5 5 6 6 7 6 6 7 7 6 7 9 11
5 5 5 5 5 4 3 3 3 3 3 3 3 3 4 4 4 4 3 3 4 4 4 4 4 6 6 4 5 5 6 7 6 6 6 6 6 6 6 7 6 5 6
5 5 5 5 5 5 3 2 2 3 3 2 2 3 4 3 4 4 4 4 4 3 4 4 5 5 5 4 4 5 5 5 6 7 6 6 6 6 7 8 7 6 5
5 5 5 5 5 4 4 3 2 2 3 3 3 3 4 4 4 4 4 4 4 5 4 5 6 6 5 5 5 4 4 4 3 5 6 5 6 6 6 5 7 7 7
5 5 5 5 4 4 5 4 4 4 3 3 3 2 3 4 4 4 5 5 5 5 4 5 5 5 6 5 5 5 4 4 4 3 4 5 5 6 6 5 6 6 7
5 4 5 5 4 4 4 4 4 4 3 2 3 3 4 4 5 5 5 5 5 5 4 5 4 5 5 6 5 5 5 5 6 5 4 4 5 5 5 6 5 5 6
4 4 4 4 4 4 4 4 4 4 4 3 3 3 3 3 3 4 4 4 5 4 4 5 5 6 6 5 6 5 5 5 5 5 5 5 5 5 5 5 6 6 6
Wind_Direction
144 131 131 141 143 144 144 144 143 145 144 145 143 143 142 138 135 137 138 136 134 133 131 129 128 126 125 122 122 127 128 124 127 127 126 125 127 130 132 139 157 135 119
138 133 133 141 145 147 147 148 146 145 146 148 148 145 145 144 140 139 141 141 140 139 137 133 130 130 129 126 125 126 130 131 131 134 137 141 137 135 133 132 97 99 123
137 135 143 142 146 148 148 150 150 148 148 151 152 151 147 146 145 143 144 145 146 145 143 139 135 137 135 132 129 128 130 132 137 145 169 164 139 140 136 128 112 117 127
137 140 139 136 144 148 149 149 152 151 151 154 155 154 151 148 147 147 148 148 150 150 149 148 144 140 138 137 133 130 130 134 140 171 188 154 145 135 137 132 130 134 137
141 140 127 139 145 146 148 149 151 153 153 154 156 154 154 153 153 150 150 152 155 154 154 154 151 144 144 144 141 139 140 141 157 207 163 137 130 130 142 138 139 142 143
147 142 131 142 144 150 152 151 152 154 155 156 157 156 156 154 154 152 153 155 158 158 158 161 159 154 155 153 151 149 153 162 201 190 165 174 147 133 146 148 153 157 158
148 142 135 139 143 150 153 152 151 152 155 156 158 159 159 155 157 157 159 162 166 165 164 165 166 162 162 162 162 164 167 190 228 179 175 180 138 138 158 167 170 172 175
149 144 136 146 149 150 150 152 153 153 154 153 157 160 167 167 166 167 168 167 169 170 167 167 167 163 160 163 169 174 184 224 219 197 195 179 125 149 176 185 184 183 184
148 145 145 155 158 159 156 154 154 151 148 154 162 167 174 177 174 175 176 175 175 174 173 174 176 175 172 174 178 183 196 235 249 212 204 179 134 167 190 197 195 190 192
151 150 150 156 153 166 163 155 154 151 151 158 166 169 182 185 184 185 186 174 183 187 189 190 189 189 187 188 190 195 206 229 234 220 206 150 146 182 197 202 200 197 197
158 159 160 158 159 168 162 153 170 165 163 172 173 172 197 201 189 189 181 163 185 192 194 194 197 199 203 198 201 207 219 233 220 231 216 124 160 194 203 205 207 205 205
166 168 167 167 164 166 156 158 178 181 170 191 180 184 203 202 201 200 151 181 193 199 199 196 203 212 224 210 193 205 224 229 230 216 168 136 174 203 209 212 214 211 210
169 170 163 161 164 170 164 172 178 179 171 185 179 192 197 200 197 205 186 187 199 202 206 187 204 218 223 227 227 216 232 240 233 226 158 147 182 210 215 214 215 215 216
169 169 167 164 167 186 177 179 189 185 181 184 175 201 195 198 204 211 216 217 213 209 210 221 220 216 229 228 234 235 230 236 235 231 148 150 185 213 220 219 220 217 219
168 172 171 175 172 188 188 206 189 196 197 189 191 198 213 209 202 207 221 229 235 226 212 222 231 218 225 225 234 235 241 239 242 237 178 162 187 213 223 223 223 222 221
169 173 173 181 176 189 196 207 205 202 204 208 204 203 215 224 214 220 221 225 231 229 232 235 235 229 230 233 236 234 240 240 237 241 238 181 187 205 221 225 224 226 228
172 172 177 182 180 191 199 206 207 204 202 209 204 206 214 227 222 231 230 220 222 224 219 229 234 231 227 227 233 236 237 240 239 238 242 241 207 195 207 218 222 223 228
177 174 183 188 183 190 203 211 213 209 202 209 208 204 213 229 230 233 235 225 219 223 222 222 234 236 234 237 236 240 239 233 238 237 236 231 239 222 198 202 215 219 223
180 180 185 191 192 195 203 212 216 203 212 218 218 214 209 226 229 235 237 229 224 225 226 231 222 243 242 245 242 234 239 237 238 239 238 233 233 242 233 185 200 209 218
179 183 188 189 188 195 198 205 212 209 213 223 222 217 224 225 227 237 228 221 234 229 228 237 234 237 247 245 252 250 248 244 240 236 238 230 227 231 235 229 212 200 204
179 187 189 190 180 189 196 211 210 213 221 223 219 204 219 227 222 231 236 209 232 230 235 235 238 229 234 235 245 244 238 233 234 234 236 239 228 229 229 228 233 230 202
191 196 198 199 191 196 192 218 230 239 233 233 229 206 217 219 224 221 229 228 226 228 222 228 235 245 236 224 243 252 246 226 223 228 224 223 230 232 229 225 228 228 239
201 203 204 202 201 198 190 201 205 210 230 220 218 211 212 219 222 235 226 234 234 236 220 225 226 233 240 228 232 248 255 250 240 214 226 229 229 236 237 232 229 226 231
204 202 200 196 198 192 197 206 214 225 234 239 238 220 214 217 222 219 223 225 235 240 228 230 225 236 240 241 222 234 262 292 264 236 217 222 229 234 239 240 236 225 227
203 199 190 189 192 191 203 204 215 232 238 234 234 220 228 215 220 220 218 221 229 238 234 240 229 238 237 246 244 234 234 238 248 252 245 233 231 233 234 235 240 237 229
201 195 185 182 187 191 203 215 223 233 243 244 242 231 231 224 222 221 225 224 229 235 231 233 233 230 243 248 254 249 243 238 241 245 249 241 241 240 236 239 235 231 232